Location: Dillon
(41.1766°N, 107.0923°W)
Time: 13:25:56
(UTC+00:00)

RS-44 - Pass Details

Date: 03 July 2022
Orbit: 1175 x 1510 km, 82.5° (Epoch: 07 August)

Event Time Altitude Azimuth Distance (km) Brightness Sun altitude
Rises 05:19:54 0° 241° (WSW) 4,384 ? -20.7°
Reaches altitude 10° 05:23:52 10° 259° (W) 3,476 ? -21.1°
Maximum altitude 05:29:12 18° 300° (WNW) 2,969 ? -21.5°
Drops below altitude 10° 05:34:45 10° 340° (NNW) 3,622 ? -22.0°
Sets 05:39:04 0° 358° (N) 4,639 ? -22.3°
